Location: City of Burdett
(38.1936°N, 99.5262°W)
Time: 04:15:02
(UTC+00:00)

Daily predictions for brighter satellites

Satellite Brightness Start Highest point End
(mag) Time Altitude Azimuth Time Altitude Azimuth Time Altitude Azimuth
SJ 16-02 3.4 00:54:54 10° SW 00:58:53 34° WNW 01:02:53 10° N
H-2A R/B 3.0 00:54:57 10° ESE 00:59:01 26° ENE 01:03:09 10° NNE
BREEZE-M TANK 4.3 00:37:58 10° SW 00:59:38 80° SSE 01:04:19 10° ENE
ATLAS 2AS CENTAUR R/B 4.5 00:57:21 10° ESE 01:00:11 12° ESE 01:03:01 10° E
Sich 1 Rocket 4.3 00:56:35 10° SSE 01:00:35 33° E 01:04:39 10° NNE
Cosmos 1975 2.8 00:58:33 10° S 01:02:37 81° E 01:06:43 10° N
NOSS 2-2 (D) 2.9 00:59:21 10° SSW 01:02:51 71° ESE 01:06:28 10° NE
Okean 2 3.5 00:59:46 10° N 01:03:54 59° E 01:07:59 10° SSE
Cosmos 1378 Rocket 4.3 01:01:35 10° NNW 01:05:49 57° W 01:10:01 10° S
CENTAUR R/B 4.5 01:01:35 10° NNW 01:07:23 21° NE 01:13:34 10° E
Cosmos 1842 3.2 01:04:51 10° N 01:08:41 61° E 01:12:31 10° SSE
CZ-4 R/B 1.4 01:08:57 10° SSE 01:13:10 77° ENE 01:17:23 10° N
Okean 2 Rocket 3.8 01:13:02 10° SSE 01:17:01 31° E 01:20:59 10° NNE
USA 116 3.6 01:13:40 10° NNE 01:17:16 66° ESE 01:21:19 10° S
Cosmos 1707 3.7 01:15:28 10° NNE 01:18:46 27° ENE 01:22:02 10° SE
Cosmos 1300 Rocket 4.2 01:15:47 10° SSE 01:19:41 32° E 01:23:38 10° NNE
Ariane Rocket 4.4 01:16:43 10° ESE 01:20:11 19° ENE 01:23:40 10° NNE
DELTA 2 R/B (1) 3.8 01:18:36 10° WNW 01:24:07 68° SSW 01:29:07 13° ESE
Okean-O 3.2 01:23:12 10° S 01:27:34 62° W 01:31:59 10° NNW
ARGOS 3.6 01:23:20 10° SE 01:28:15 39° ENE 01:33:12 10° N
YAOGAN 1 2.6 01:24:42 10° SSE 01:29:01 85° W 01:33:22 10° NNW
Cosmos 1437 2.9 01:29:52 10° NNW 01:32:50 66° W 01:35:47 10° S
SJ-6B 4.4 01:33:14 15° ENE 01:33:31 15° ENE 01:35:41 10° NNE
CZ-2C R/B 3.4 01:31:07 10° NE 01:35:58 30° E 01:40:50 10° SSE
CZ-2C R/B 3.1 01:30:55 10° SSE 01:36:05 81° ENE 01:41:37 10° N
Cosmos 2298 Rocket 4.1 01:32:00 10° S 01:37:10 53° ESE 01:42:21 10° NNE
Cosmos 1513 Rocket 4.4 01:36:50 10° S 01:43:04 70° E 01:49:14 10° NNE
USA 186 3.0 01:43:19 23° ENE 01:43:19 23° ENE 01:45:54 10° NNE
MOS 1 Rocket 3.0 01:39:07 10° NNE 01:43:31 72° ESE 01:47:46 10° S
Cosmos 1536 Rocket 4.4 01:39:44 10° NNE 01:43:39 30° ENE 01:45:33 22° ESE
Cosmos 372 Rocket 4.1 01:40:51 10° SSW 01:46:05 83° WNW 01:51:21 10° NNE
Cosmos 2285 Rocket 4.5 01:41:58 10° SSE 01:47:36 36° E 01:53:16 10° NE
Cosmos 1025 Rocket 3.3 01:44:24 10° N 01:48:37 45° E 01:51:49 16° SSE
Cosmos 2263 Rocket 4.2 01:44:55 10° WSW 01:49:43 29° WNW 01:54:34 10° N
Cosmos 1844 3.9 01:45:41 10° S 01:51:06 46° ESE 01:56:29 10° NE
NOSS 3-2 (A) 4.5 01:43:57 10° NNW 01:51:15 45° NE 01:56:30 22° ESE
ISS -1.6 01:49:41 10° W 01:52:29 24° NNW 01:55:18 10° NNE
Cosmos 1464 Rocket 3.9 01:47:05 10° S 01:53:11 81° E 01:59:22 10° N
Cosmos 1844 Rocket 2.6 01:50:10 10° S 01:55:38 64° ESE 02:01:10 10° NNE
Cosmos 1867 3.5 01:52:21 10° NNW 01:57:50 82° ENE 02:01:45 19° SSE
Cosmos 2151 Rocket 3.5 01:54:17 10° S 01:58:40 66° E 02:03:08 10° NNE
Cosmos 2150 Rocket 4.0 02:00:56 10° SSW 02:06:17 89° WNW 02:11:45 10° NNE
CZ-2C R/B 1.3 02:03:09 10° W 02:06:38 46° S 02:07:04 43° SSE
MetOp-A 4.5 02:07:40 32° ESE 02:09:30 43° ENE 02:14:33 10° N
Cosmos 1125 Rocket 3.4 02:05:10 10° S 02:10:24 66° ESE 02:15:41 10° NNE
USA 234 3.4 02:05:04 10° NE 02:11:25 51° SE 02:17:44 10° SSW
Milstar 3 Cent rocket 3.4 02:07:35 10° SW 02:13:06 25° S 02:14:14 23° SSE
MOS 1 4.4 02:10:42 29° SE 02:13:24 53° ENE 02:18:56 10° N
Longmarch 3A Rocket 3.7 02:12:08 10° SSW 02:12:56 15° S 02:12:56 15° S
DMSP B5D2-2 4.0 02:13:20 10° NNE 02:18:35 64° ESE 02:23:48 10° S
BREEZE-M DEB (TANK) 3.6 02:18:14 10° NW 02:19:17 27° NW 02:19:17 27° NW
NOSS 3-2 (C) 4.4 02:19:37 10° NNW 02:26:59 48° NE 02:29:49 36° E
NOSS 3-4 (A) 3.4 02:21:47 10° S 02:27:25 51° ESE 02:30:10 30° ENE
NOSS 3-4 (C) 3.4 02:21:55 10° S 02:27:31 51° ESE 02:29:46 34° ENE
Cosmos 1674 3.4 02:26:09 10° N 02:28:51 41° NNE 02:28:51 41° NNE
Cosmos 468 4.4 02:26:16 10° NNW 02:31:38 85° ENE 02:33:12 47° SSE
Resurs 01 Rocket 3.4 02:36:49 20° NNE 02:36:49 20° NNE 02:38:32 10° N
Meteor 1-15 Rocket 4.2 02:29:55 10° S 02:35:30 83° W 02:41:14 10° N
Exosat Rocket 3.7 02:31:40 10° SSW 02:37:37 79° WNW 02:42:38 10° NNE
H-2A R/B 3.6 02:33:53 10° SSW 02:38:17 32° W 02:42:47 10° NNW
IRS-1A Rocket 4.4 02:38:36 27° S 02:41:56 77° WSW 02:47:50 10° NNW
Cosmos 1048 Rocket 4.0 02:36:50 10° NNW 02:42:11 82° WSW 02:43:26 54° S
Nadezhda 4 Rocket 4.2 02:41:59 10° NNW 02:48:02 65° W 02:52:33 18° S
ATLAS 2AS CENTAUR R/B 2.9 02:42:04 10° SSW 02:49:53 71° ESE 02:57:48 10° NE
BREEZE-M DEB (TANK) 3.6 02:47:59 10° NW 02:51:55 89° NE 02:54:11 50° SE
Okean 1 Rocket 3.4 02:53:24 65° NW 02:53:24 65° NW 02:57:36 10° N
OBJECT-B 3.8 02:56:31 12° NNW 02:56:31 12° NNW 02:56:49 10° NNW
Ariane Rocket 3.8 02:56:56 34° SSW 02:58:44 48° W 03:03:39 10° NNW
CENTAUR R/B 3.2 02:51:20 10° NNW 02:59:35 70° NE 03:01:27 56° ESE
Cosmos 494 Rocket 4.2 03:02:09 10° NNW 03:06:52 68° NW 03:06:52 68° NW
Cosmos 2082 Rocket 4.3 03:04:01 10° NNE 03:05:22 13° NNE 03:05:22 13° NNE
ATLAS 3B R/B 3.8 03:01:45 10° NNW 03:07:18 29° NE 03:07:18 29° NE
Meteor 2-5 Rocket 3.8 03:05:04 10° N 03:10:22 77° NW 03:10:22 77° NW
Meteor 1-22 Rocket 4.4 03:14:29 73° NNW 03:14:29 73° NNW 03:20:02 10° N
USA 238 DEB 4.0 03:08:12 10° NW 03:15:28 69° WSW 03:16:46 58° SSW
USA 238 4.0 03:08:18 10° NW 03:15:34 69° WSW 03:16:50 59° S
CZ-2C R/B 4.3 03:11:15 10° N 03:16:12 34° WNW 03:21:10 10° SW
COSMOS 2406 4.5 03:17:02 10° N 03:20:16 31° N 03:20:16 31° N
Cosmos 1634 Rocket 4.3 03:21:52 52° SW 03:23:04 62° W 03:29:13 10° N
SPOT 3 Rocket 4.4 03:25:35 46° NW 03:25:35 46° NW 03:29:19 10° NNW
Meteor 1-24 Rocket 4.4 03:22:41 10° NNW 03:26:44 50° NNW 03:26:44 50° NNW
USA 234 4.1 03:52:10 35° N 03:54:19 46° NW 04:00:30 10° WSW
Cosmos 1980 Rocket 4.1 08:52:47 26° NE 08:52:47 26° NE 08:55:27 10° NE
ADEOS II 4.2 09:07:29 10° N 09:09:06 20° N 09:09:06 20° N
ARIANE 5 R/B 4.3 09:10:16 10° NNE 09:12:41 27° NE 09:12:41 27° NE
IDEFIX/ARIANE 42P 3.9 09:16:30 10° NNE 09:20:03 36° NE 09:20:03 36° NE
SJ 16-02 4.2 09:25:55 10° NNE 09:28:40 16° ENE 09:31:25 10° E
BREEZE-M DEB (TANK) 3.9 09:39:27 77° SSW 09:40:00 83° SSE 09:59:26 10° ENE
Lacrosse 5 3.7 09:45:25 23° N 09:45:25 23° N 09:48:08 10° NNE
Cosmos 2278 4.5 09:50:09 43° N 09:50:09 43° N 09:54:12 10° NNE
X-37B 4.1 09:51:10 12° NE 09:51:10 12° NE 09:51:31 10° ENE
NOSS 3-3 (A) 3.7 10:06:31 75° WNW 10:06:38 75° NW 10:12:58 10° NNE
NOSS 3-3 (C) 3.6 10:06:41 76° WNW 10:06:46 76° NW 10:13:02 10° NNE
USA 267 3.8 10:02:44 10° NE 10:08:46 41° NNW 10:09:48 38° NW
Cosmos 1339 Rocket 4.3 10:14:20 49° SSW 10:16:09 81° W 10:22:24 10° N
Spot 4 Rocket 4.3 10:11:16 10° N 10:15:34 52° NW 10:15:34 52° NW
Cosmos 921 Rocket 3.8 10:20:07 40° N 10:20:07 40° N 10:22:58 10° N
Meteor 2-7 Rocket 4.5 10:20:03 66° SW 10:20:42 74° W 10:26:12 10° N
Cosmos 1812 3.5 10:21:50 45° N 10:21:50 45° N 10:24:34 10° N
Cosmos 1500 4.5 10:20:06 10° N 10:22:18 33° N 10:22:18 33° N
Cosmos 2360 Rocket 4.0 10:19:24 10° SSE 10:24:11 29° ESE 10:28:59 10° NE
ADEOS Rocket 4.2 10:21:45 10° SE 10:28:17 47° ENE 10:34:12 10° N
MSX 3.8 10:23:07 10° N 10:28:49 63° WNW 10:30:09 49° SW
Cosmos 1697 Rocket 4.5 10:30:20 16° NW 10:30:20 16° NW 10:32:57 10° NNW
Cosmos 1707 Rocket 4.3 10:26:34 19° SSE 10:29:28 51° E 10:33:41 10° NNE
Cosmos 1666 4.2 10:25:55 10° N 10:29:29 37° E 10:33:00 10° SSE
IRIDIUM 104 4.4 10:24:30 10° N 10:29:45 74° E 10:34:56 10° S
Timation 1 Rocket 4.4 10:25:52 10° NW 10:31:39 51° WSW 10:37:25 10° S
Cosmos 1980 Rocket 3.3 10:34:34 27° NW 10:34:34 27° NW 10:39:04 10° N
IRIDIUM 114 4.2 10:33:39 10° N 10:38:53 89° W 10:44:06 10° S
Cosmos 2322 Rocket 2.2 10:37:25 24° SSW 10:40:56 80° ESE 10:46:39 10° NNE
USA 234 3.3 10:34:51 10° SE 10:41:22 79° NE 10:47:55 10° NW
FALCON 9 DEB 3.2 10:43:18 65° N 10:43:18 65° N 10:46:30 10° NE
Cosmos 2263 Rocket 2.1 10:38:46 10° NNW 10:44:27 84° WSW 10:50:08 10° SSE
USA 32 4.4 10:39:27 10° N 10:44:42 66° E 10:49:54 10° SSE
SL-4 R/B 2.2 10:43:55 53° WSW 10:44:56 78° NW 10:49:43 10° NE
Cosmos 2228 Rocket 4.1 10:47:14 29° NW 10:47:14 29° NW 10:50:10 10° NNW
IRIDIUM 103 4.2 10:42:48 10° N 10:48:01 73° W 10:53:12 10° S
Meteor 1-4 Rocket 3.0 10:50:45 42° NW 10:50:45 42° NW 10:53:30 10° N
SL-16 R/B 2.1 10:47:26 30° SW 10:50:18 70° WNW 10:55:59 10° NNE
Cosmos 1937 Rocket 4.4 10:45:58 10° N 10:50:58 50° ENE 10:55:56 10° SE
ARIANE 5 R/B 4.2 10:50:37 10° NNW 10:53:01 17° NW 10:53:01 17° NW
Cosmos 44 Rocket 3.7 10:51:43 16° SSW 10:55:18 60° ESE 11:00:02 10° NE
ERBS 4.1 10:55:42 20° NNW 10:55:42 20° NNW 10:57:59 10° NNE
Cosmos 841 Rocket 3.9 10:51:01 10° S 10:56:09 65° ESE 11:01:21 10° NNE
ADEOS 4.0 10:51:23 10° NNE 10:56:34 62° ESE 11:01:42 10° S
Cosmos 1869 Rocket 3.6 10:53:32 10° NNW 10:57:42 48° W 11:01:51 10° SSW
CZ-2C R/B 4.4 10:55:15 10° NNW 10:57:09 20° NW 10:57:09 20° NW
CZ-2C R/B 2.5 10:54:31 10° N 10:59:37 66° WNW 11:04:21 12° SSW
IDEFIX/ARIANE 42P 3.9 10:56:56 10° NNW 11:00:47 21° WNW 11:00:51 21° WNW
Cosmos 1862 Rocket 4.1 10:59:20 10° S 11:03:39 60° E 11:07:57 10° NNE
Cosmos 2227 4.2 10:58:20 10° NNW 11:03:47 52° WSW 11:09:13 10° S
Cosmos 2173 Rocket 4.4 10:57:31 10° N 11:03:51 69° E 11:10:11 10° SSE
Cosmos 1763 Rocket 3.7 11:01:39 24° SW 11:04:37 52° WNW 11:09:49 10° N
SJ-6F 4.4 11:02:06 10° NNE 11:06:12 86° E 11:10:16 10° SSW
IRIDIUM 106 4.5 11:01:16 10° NNW 11:06:17 48° W 11:11:16 10° SSW
CZ-4B R/B 1.9 11:04:09 10° SSE 11:07:12 57° ENE 11:10:22 10° N
SJ 16-02 1.6 11:03:17 10° NNW 11:07:26 42° WSW 11:11:34 10° S
PSLV R/B 3.9 11:05:43 10° N 11:09:39 41° WNW 11:11:42 24° SW
H-2A R/B 2.7 11:07:40 10° SSW 11:11:37 34° W 11:15:40 10° NNW
Cosmos 2219 Rocket 4.4 11:09:56 10° SSE 11:14:34 27° ESE 11:19:14 10° NE
Cosmos 1570 Rocket 4.0 11:13:29 10° SSW 11:18:47 79° WNW 11:24:09 10° NNE
ERS-2 2.5 11:18:43 10° S 11:22:09 39° W 11:25:36 10° NNW
X-37B 1.5 11:23:27 14° NW 11:26:01 44° NNE 11:29:05 10° E
Okean 1 4.2 11:22:35 10° S 11:26:31 54° E 11:30:29 10° NNE
Lacrosse 5 4.3 11:27:46 10° NNW 11:28:20 10° NNW 11:28:54 10° N
Intercosmos 25 3.5 11:24:31 10° S 11:29:10 80° E 11:32:33 10° N
CZ-4B R/B 3.8 11:26:40 10° NNE 11:30:11 45° E 11:33:36 10° S
Cosmos 2333 Rocket 3.6 11:25:36 10° S 11:30:58 42° ESE 11:36:21 10° NE
Cosmos 540 Rocket 3.5 11:26:03 10° SSW 11:31:07 59° WNW 11:36:15 10° N
Cosmos 990 Rocket 4.3 11:26:29 10° NNW 11:31:22 42° WSW 11:36:14 10° S
BREEZE M DEB (TANK) 3.1 11:22:01 10° NW 11:31:51 62° SW 11:35:11 10° SE
CZ-4B R/B 4.1 11:27:42 10° N 11:32:05 86° WNW 11:36:33 10° SSW
Cosmos 2016 Rocket 4.1 11:28:28 10° N 11:34:36 79° E 11:40:41 10° S
Cosmos 1484 Rocket 2.8 11:31:41 10° N 11:35:38 61° WNW 11:39:34 10° SSW
Meteor 2-20 4.4 11:29:46 10° SSW 11:35:53 75° W 11:42:01 10° N
ALOS 2.2 11:33:59 10° N 11:38:37 66° WNW 11:43:13 10° SSW
COSMO-SKYMED 1 3.5 11:34:27 10° SSE 11:38:39 52° ENE 11:42:53 10° N
Cosmos 2322 4.2 11:33:43 10° S 11:39:18 65° ESE 11:44:55 10° NNE
Cosmos 1536 3.5 11:39:45 10° NNW 11:43:25 33° W 11:47:04 10° SSW
Meteor 1-31 Rocket 2.9 11:43:27 10° N 11:47:12 53° WNW 11:50:56 10° SSW
Cosmos 1437 Rocket 2.6 11:44:26 10° SSW 11:48:10 64° W 11:51:58 10° N
Cosmos 1544 3.4 11:47:24 10° N 11:50:58 68° E 11:54:31 10° SSE
PSLV R/B 4.1 11:48:37 10° SSE 11:52:39 81° ENE 11:56:45 10° N
